1998-067WT

Last updated on Thu Sep 05 2024 00:02:08 GMT+0000 (Coordinated Universal Time)

1 60953U 98067WT 24247.66711382 .00102989 00000+0 17281-2 0 9995 2 60953 51.6414 286.5082 0013904 318.0790 41.9263 15.50877393 825

Satellite not in orbit